Leesburg, VA

10:44 AM EST on December 05, 2019 (GMT -0500)
Leesburg Executive

Weather History for KJYO - April, 2019

Change the Weather History Date:

Tuesday, April 2, 2019

  Actual Average (KIAD) Record (KIAD)
Temperature  
Mean Temperature 40 °F -  
Max Temperature 48 °F 63 °F 86 °F (1967)
Min Temperature 32 °F 39 °F 21 °F (1964)
Degree Days  
Heating Degree Days 25    
Moisture  
Dew Point 30 °F    
Average Humidity 68    
Maximum Humidity 93    
Minimum Humidity 37    
Precipitation  
Precipitation 0.00 in - - ()
Sea Level Pressure  
Sea Level Pressure 30.26 in    
Wind  
Wind Speed 2 mph (ESE)    
Max Wind Speed 9 mph    
Max Gust Speed 16 mph    
Visibility 10 miles    
Events      
Averages and records for this station are not official NWS values.
T = Trace of Precipitation, MM = Missing Value Source: NWS Daily Summary

Daily Weather History Graph

Daily Weather History Graph

Search for Another Location

Airport or City:

Astronomy

Apr. 02, 2019 Rise Set
Actual Time 6:53 AM EDT 7:34 PM EDT
Civil Twilight 6:26 AM EDT 8:01 PM EDT
Nautical Twilight 5:54 AM EDT 8:33 PM EDT
Astronomical Twilight 5:22 AM EDT 9:06 PM EDT
Moon 5:55 AM EDT (4/2) 5:05 PM EDT (4/2)
Length of Visible Light 13h 35m
Length of Day
12h 41m
Waning Crescent, 7% of the Moon is Illuminated
Apr 2
Waning Crescent
Apr 5
New
Apr 12
First Quarter
Apr 19
Full
Apr 26
Last Quarter

Hourly Weather History & Observations

Time (EDT) Temp. Windchill Dew Point Humidity Pressure Visibility Wind Dir Wind Speed Gust Speed Precip Events Conditions
12:15 AM 33.8 °F - 28.4 °F 81% 30.36 in 10.0 mi Calm Calm - N/A   Clear
12:35 AM 33.8 °F - 28.4 °F 81% 30.36 in 10.0 mi Calm Calm - N/A   Clear
12:55 AM 33.8 °F - 28.4 °F 81% 30.36 in 10.0 mi Calm Calm - N/A   Clear
1:15 AM 33.8 °F - 28.4 °F 81% 30.36 in 10.0 mi Calm Calm - N/A   Clear
1:35 AM 32.0 °F - 28.4 °F 87% 30.36 in 10.0 mi Calm Calm - N/A   Clear
1:55 AM 32.0 °F - 28.4 °F 87% 30.36 in 10.0 mi Calm Calm - N/A   Clear
2:35 AM 32.0 °F - 28.4 °F 87% 30.35 in 10.0 mi Calm Calm - N/A   Clear
2:55 AM 32.0 °F - 28.4 °F 87% 30.35 in 10.0 mi Calm Calm - N/A   Clear
3:15 AM 32.0 °F - 28.4 °F 87% 30.35 in 10.0 mi Calm Calm - N/A   Clear
3:35 AM 33.8 °F - 28.4 °F 81% 30.35 in 10.0 mi Calm Calm - N/A   Clear
3:55 AM 32.0 °F - 28.4 °F 87% 30.35 in 10.0 mi Calm Calm - N/A   Clear
4:15 AM 32.0 °F - 28.4 °F 87% 30.35 in 10.0 mi Calm Calm - N/A   Clear
4:35 AM 32.0 °F - 28.4 °F 87% 30.36 in 10.0 mi Calm Calm - N/A   Clear
4:55 AM 32.0 °F - 28.4 °F 87% 30.36 in 10.0 mi Calm Calm - N/A   Clear
5:15 AM 35.6 °F - 28.4 °F 75% 30.36 in 10.0 mi Calm Calm - N/A   Clear
5:35 AM 33.8 °F 30.8 °F 28.4 °F 81% 30.35 in 10.0 mi ESE 3.5 mph - N/A   Clear
5:55 AM 32.0 °F - 28.4 °F 87% 30.36 in 10.0 mi Calm Calm - N/A   Clear
6:15 AM 32.0 °F - 28.4 °F 87% 30.35 in 10.0 mi Calm Calm - N/A   Clear
6:35 AM 32.0 °F 28.7 °F 28.4 °F 87% 30.36 in 10.0 mi East 3.5 mph - N/A   Clear
6:55 AM 33.8 °F 29.6 °F 30.2 °F 87% 30.35 in 10.0 mi East 4.6 mph - N/A   Clear
7:15 AM 33.8 °F 30.8 °F 30.2 °F 87% 30.35 in 10.0 mi East 3.5 mph - N/A   Clear
7:35 AM 33.8 °F - 30.2 °F 87% 30.35 in 10.0 mi Calm Calm - N/A   Clear
7:55 AM 33.8 °F - 32.0 °F 93% 30.36 in 10.0 mi Calm Calm - N/A   Clear
8:15 AM 35.6 °F - 32.0 °F 87% 30.36 in 10.0 mi Calm Calm - N/A   Clear
8:35 AM 37.4 °F - 32.0 °F 81% 30.36 in 10.0 mi Calm Calm - N/A   Clear
8:55 AM 39.2 °F - 32.0 °F 75% 30.35 in 10.0 mi Calm Calm - N/A   Clear
9:15 AM 41.0 °F - 32.0 °F 70% 30.35 in 10.0 mi Calm Calm - N/A   Clear
9:35 AM 41.0 °F 39.0 °F 32.0 °F 70% 30.36 in 10.0 mi South 3.5 mph - N/A   Clear
9:55 AM 44.6 °F 43.1 °F 32.0 °F 61% 30.36 in 10.0 mi SSE 3.5 mph - N/A   Clear
10:15 AM 44.6 °F 43.1 °F 32.0 °F 61% 30.34 in 10.0 mi SW 3.5 mph - N/A   Clear
10:35 AM 44.6 °F 42.2 °F 32.0 °F 61% 30.32 in 10.0 mi South 4.6 mph - N/A   Clear
10:55 AM 44.6 °F 39.7 °F 30.2 °F 57% 30.32 in 10.0 mi East 9.2 mph - N/A   Clear
11:15 AM 44.6 °F 43.1 °F 32.0 °F 61% 30.30 in 10.0 mi SE 3.5 mph - N/A   Clear
11:35 AM 46.4 °F 44.3 °F 32.0 °F 57% 30.31 in 10.0 mi South 4.6 mph - N/A   Clear
11:55 AM 46.4 °F 43.5 °F 30.2 °F 53% 30.30 in 10.0 mi SE 5.8 mph - N/A   Clear
12:15 PM 46.4 °F 43.5 °F 28.4 °F 50% 30.28 in 10.0 mi SSE 5.8 mph - N/A   Clear
12:35 PM 46.4 °F 45.2 °F 28.4 °F 50% 30.27 in 10.0 mi East 3.5 mph - N/A   Clear
12:55 PM 48.2 °F - 26.6 °F 43% 30.26 in 10.0 mi SE 5.8 mph - N/A   Clear
1:15 PM 46.4 °F 42.4 °F 26.6 °F 46% 30.25 in 10.0 mi East 8.1 mph - N/A   Clear
1:35 PM 48.2 °F - 26.6 °F 43% 30.24 in 10.0 mi SE 3.5 mph - N/A   Mostly Cloudy
1:55 PM 48.2 °F - 26.6 °F 43% 30.23 in 10.0 mi SE 3.5 mph - N/A   Mostly Cloudy
2:15 PM 48.2 °F - 24.8 °F 40% 30.22 in 10.0 mi ESE 3.5 mph - N/A   Overcast
2:35 PM 48.2 °F - 23.0 °F 37% 30.22 in 10.0 mi ESE 6.9 mph - N/A   Overcast
2:55 PM 48.2 °F - 23.0 °F 37% 30.21 in 10.0 mi ESE 5.8 mph - N/A   Overcast
3:15 PM 48.2 °F - 23.0 °F 37% 30.20 in 10.0 mi SE 5.8 mph - N/A   Overcast
3:35 PM 48.2 °F - 26.6 °F 43% 30.20 in 10.0 mi ESE 9.2 mph 16.1 mph N/A   Overcast
3:55 PM 46.4 °F 41.9 °F 28.4 °F 50% 30.20 in 10.0 mi SE 9.2 mph - N/A   Overcast
4:15 PM 46.4 °F 45.2 °F 30.2 °F 53% 30.18 in 10.0 mi SE 3.5 mph - N/A   Overcast
4:35 PM 46.4 °F 43.5 °F 30.2 °F 53% 30.17 in 10.0 mi East 5.8 mph - N/A   Overcast
4:55 PM 46.4 °F 42.4 °F 30.2 °F 53% 30.15 in 10.0 mi ENE 8.1 mph - N/A   Overcast
5:15 PM 46.4 °F 42.4 °F 30.2 °F 53% 30.16 in 10.0 mi ESE 8.1 mph - N/A   Overcast
5:35 PM 46.4 °F 42.4 °F 32.0 °F 57% 30.16 in 10.0 mi ESE 8.1 mph - N/A   Overcast
5:55 PM 46.4 °F 43.5 °F 32.0 °F 57% 30.15 in 10.0 mi East 5.8 mph - N/A   Overcast
6:15 PM 46.4 °F - 32.0 °F 57% 30.15 in 10.0 mi Calm Calm - N/A   Overcast
6:35 PM 46.4 °F 44.3 °F 32.0 °F 57% 30.14 in 10.0 mi East 4.6 mph - N/A   Overcast
6:55 PM 46.4 °F 44.3 °F 32.0 °F 57% 30.14 in 10.0 mi SSE 4.6 mph - N/A   Overcast
7:35 PM 44.6 °F 42.2 °F 33.8 °F 66% 30.14 in 10.0 mi SE 4.6 mph - N/A   Overcast
7:55 PM 44.6 °F - 33.8 °F 66% 30.13 in 10.0 mi Calm Calm - N/A   Overcast
8:15 PM 44.6 °F - 33.8 °F 66% 30.13 in 10.0 mi Calm Calm - N/A   Overcast
8:35 PM 44.6 °F - 33.8 °F 66% 30.13 in 10.0 mi Calm Calm - N/A   Overcast
8:55 PM 44.6 °F - 35.6 °F 71% 30.12 in 10.0 mi Calm Calm - N/A   Overcast
9:15 PM 44.6 °F - 33.8 °F 66% 30.12 in 10.0 mi Calm Calm - N/A   Overcast
9:35 PM 44.6 °F - 35.6 °F 71% 30.12 in 10.0 mi Calm Calm - N/A   Overcast
9:55 PM 44.6 °F 42.2 °F 35.6 °F 71% 30.12 in 10.0 mi NW 4.6 mph - N/A   Overcast
10:15 PM 44.6 °F 43.1 °F 35.6 °F 71% 30.12 in 10.0 mi NNW 3.5 mph - N/A   Overcast
10:35 PM 44.6 °F 42.2 °F 35.6 °F 71% 30.12 in 10.0 mi North 4.6 mph - N/A   Overcast
10:55 PM 44.6 °F 43.1 °F 35.6 °F 71% 30.12 in 10.0 mi North 3.5 mph - N/A   Overcast
11:15 PM 44.6 °F - 35.6 °F 71% 30.12 in 10.0 mi Calm Calm - N/A   Overcast
11:35 PM 42.8 °F - 35.6 °F 76% 30.11 in 10.0 mi Calm Calm - N/A   Mostly Cloudy